Stations météo

réclame
Mon MeteoGroup
La Roche-Sur-Yon, France (7306): Température de l'air & dewpoint: 17.10.2017 10:00:00 - 23.10.2017 10:00:00 (CEST)La Roche-Sur-Yon, France (7306): Température de l'air 5cm: 17.10.2017 10:00:00 - 23.10.2017 10:00:00 (CEST)La Roche-Sur-Yon, France (7306): Température de l'air -20cm & Température de l'air -100cm: 17.10.2017 10:00:00 - 23.10.2017 10:00:00 (CEST)La Roche-Sur-Yon, France (7306): Vitesse du vent & gusts: 17.10.2017 10:00:00 - 23.10.2017 10:00:00 (CEST)La Roche-Sur-Yon, France (7306): Direction du vent: 17.10.2017 10:00:00 - 23.10.2017 10:00:00 (CEST)La Roche-Sur-Yon, France (7306): reduced air pressure: 17.10.2017 10:00:00 - 23.10.2017 10:00:00 (CEST)La Roche-Sur-Yon, France (7306): visibility: 17.10.2017 10:00:00 - 23.10.2017 10:00:00 (CEST)La Roche-Sur-Yon, France (7306): Ensoleillement: 17.10.2017 10:00:00 - 23.10.2017 10:00:00 (CEST)La Roche-Sur-Yon, France (7306): Quantités de précipitations: 17.10.2017 10:00:00 - 23.10.2017 10:00:00 (CEST)
Date & Time tt [°C] td [°C] tt 5cm [°C] tt -20cm [°C] tt -100cm [°C] ff [km/h] ff [knt] fx [km/h] fx [knt] dd ppp [hPa] vv [km] sd [min] rr [mm]
23.10.2017 10:00:00 - - - - - - - - - - - - - -
23.10.2017 09:00:00 12,4 10,3 11,3 13,9 16,1 8 4 12 7 S 1025,4 10 0 0,0
23.10.2017 08:00:00 12,1 9,8 11,0 14,0 16,1 6 3 10 5 SW 1025,5 17 0 0,0
23.10.2017 07:00:00 11,5 9,2 10,9 14,0 16,1 6 3 11 6 S 1025,7 60 0 0,0
23.10.2017 06:00:00 11,5 8,9 10,7 14,0 16,1 8 4 10 5 SSE 1025,5 10 0 0,0
23.10.2017 05:00:00 11,2 8,6 10,5 14,0 16,1 5 3 8 4 SSE 1025,8 60 0 0,0
23.10.2017 04:00:00 11,2 8,8 10,7 14,1 16,1 5 3 10 5 S 1025,9 60 0 0,0
23.10.2017 03:00:00 11,5 8,7 10,0 14,1 16,1 3 2 7 4 SSW 1026,0 60 0 0,0
23.10.2017 02:00:00 11,3 8,5 9,5 14,1 16,1 5 3 9 5 SW 1026,3 60 0 0,0
23.10.2017 01:00:00 11,3 8,5 10,6 14,1 16,1 5 3 8 4 S 1026,7 10 0 0,0
23.10.2017 00:00:00 11,8 8,3 10,9 14,2 16,1 4 2 13 7 SW 1026,8 60 0 0,0
22.10.2017 23:00:00 11,6 7,9 9,5 14,2 16,1 6 3 13 7 W 1026,5 60 0 0,0
22.10.2017 22:00:00 11,6 7,9 10,4 14,3 16,1 8 4 25 13 W 1026,3 10 0 0,0
22.10.2017 21:00:00 12,1 8,2 10,8 14,3 16,1 11 6 21 12 W 1026,3 60 0 0,0
22.10.2017 20:00:00 12,7 8,6 11,9 14,3 16,1 9 5 23 12 W 1026,1 10 0 0,0
22.10.2017 19:00:00 13,2 8,1 12,4 14,3 16,1 13 7 32 17 W 1025,6 10 20 0,0
22.10.2017 18:00:00 13,4 8,2 13,2 14,2 16,1 18 10 34 18 W 1025,2 10 33 0,0
22.10.2017 17:00:00 13,8 8,4 12,9 14,1 16,2 19 11 32 17 WNW 1025,3 60 28 0,0
22.10.2017 16:00:00 12,7 9,3 12,8 14,1 16,2 16 9 35 19 WNW 1025,2 10 5 0,0
22.10.2017 15:00:00 13,2 9,1 12,7 14,0 16,1 16 9 38 20 W 1025,5 57 2 0,0
22.10.2017 14:00:00 13,6 7,6 13,7 13,9 16,2 25 13 39 21 W 1025,2 54 46 0,0
22.10.2017 13:00:00 12,6 9,2 12,0 13,9 16,2 15 8 34 18 W 1025,6 10 18 0,0
22.10.2017 12:00:00 11,3 8,9 10,4 13,9 16,2 9 5 18 10 W 1025,5 10 11 0,8
22.10.2017 11:00:00 11,5 8,0 9,8 14,0 16,2 10 5 24 13 W 1025,1 53 18 0,0
22.10.2017 10:00:00 10,3 8,2 7,1 14,1 16,2 11 6 23 12 W 1024,9 15 0 0,2
22.10.2017 09:00:00 8,9 6,5 5,5 14,2 16,2 5 3 20 11 SW 1024,1 10 0 0,0
22.10.2017 08:00:00 7,0 5,0 4,3 14,3 16,2 8 5 12 7 N 1024,1 60 0 0,0
22.10.2017 07:00:00 9,7 6,8 7,7 14,4 16,2 9 5 41 22 W 1023,5 60 0 0,2
22.10.2017 06:00:00 9,4 6,7 7,5 14,5 16,2 13 7 27 14 NW 1023,0 60 0 0,0
22.10.2017 05:00:00 9,9 7,0 7,9 14,6 16,2 10 5 23 12 W 1022,7 59 0 0,0
22.10.2017 04:00:00 10,3 7,2 7,7 14,7 16,2 9 5 33 18 W 1022,3 10 0 0,0
22.10.2017 03:00:00 10,2 7,1 6,4 14,8 16,2 13 7 20 11 WSW 1022,4 10 0 0,0
22.10.2017 02:00:00 9,4 6,5 7,2 15,0 16,2 8 4 18 10 W 1022,7 60 0 0,0
22.10.2017 01:00:00 10,1 6,2 8,0 15,1 16,2 11 6 61 33 W 1022,4 10 0 0,4
22.10.2017 00:00:00 10,6 6,5 8,9 15,2 16,2 11 6 18 10 WSW 1022,1 59 0 0,0
21.10.2017 23:00:00 11,0 6,5 8,8 15,3 16,2 14 8 47 26 W 1021,6 60 0 0,0
21.10.2017 22:00:00 12,2 6,9 9,9 15,4 16,2 15 8 26 14 W 1021,2 56 0 0,0
21.10.2017 21:00:00 12,2 7,5 9,3 15,5 16,2 15 8 36 19 WSW 1021,0 50 0 0,0
21.10.2017 20:00:00 12,3 7,6 9,9 15,5 16,2 21 12 34 19 W 1020,6 11 0 0,4
21.10.2017 19:00:00 13,4 8,2 12,4 15,5 16,2 18 10 46 25 W 1019,7 55 13 0,0
21.10.2017 18:00:00 13,9 8,5 10,5 15,6 16,2 18 10 52 28 WSW 1019,4 10 41 0,2
21.10.2017 17:00:00 14,7 8,9 11,8 15,5 16,2 25 13 51 28 WSW 1018,7 17 37 0,4
21.10.2017 16:00:00 15,9 8,4 15,2 15,5 16,2 31 17 63 34 W 1018,2 10 14 0,0
21.10.2017 15:00:00 16,4 8,1 13,0 15,5 16,2 34 18 57 31 WSW 1018,0 10 44 0,0
21.10.2017 14:00:00 16,7 8,1 16,7 15,5 16,2 35 19 61 33 WSW 1017,8 10 44 0,0
21.10.2017 13:00:00 15,9 8,4 15,5 15,5 16,2 32 17 57 31 W 1017,9 32 32 0,0
21.10.2017 12:00:00 16,6 9,5 15,9 15,5 16,2 28 15 59 32 WSW 1017,7 10 32 0,0
21.10.2017 11:00:00 16,3 10,2 13,2 15,6 16,2 26 14 53 29 SW 1017,4 10 46 0,0
21.10.2017 10:00:00 15,1 9,2 12,4 15,7 16,2 15 8 40 22 WSW 1016,8 10 11 0,0
21.10.2017 09:00:00 14,6 9,2 12,2 15,7 16,2 15 8 30 16 WSW 1016,2 10 0 0,0
21.10.2017 08:00:00 14,5 10,1 12,4 15,8 16,2 15 8 34 18 WSW 1015,5 10 0 0,0
21.10.2017 07:00:00 14,4 12,1 12,5 15,8 16,2 14 8 26 14 WSW 1014,9 17 0 0,2
21.10.2017 06:00:00 13,8 11,5 12,7 15,9 16,3 17 9 40 22 WSW 1014,5 20 0 1,2
21.10.2017 05:00:00 14,0 13,2 13,6 15,9 16,3 18 10 39 21 SW 1014,1 5 0 1,6
21.10.2017 04:00:00 14,4 13,4 13,8 15,9 16,2 20 11 62 33 WSW 1014,3 6 0 1,4
21.10.2017 03:00:00 17,8 14,9 16,4 15,9 16,2 24 13 46 25 SW 1013,0 10 0 0,0
21.10.2017 02:00:00 17,2 14,3 16,1 15,9 16,3 28 15 42 23 S 1012,6 10 0 0,0
21.10.2017 01:00:00 17,3 14,2 16,5 15,9 16,3 26 14 38 21 S 1013,1 10 0 0,0
21.10.2017 00:00:00 17,2 13,9 16,3 15,9 16,2 18 10 33 18 S 1013,3 10 0 0,0
20.10.2017 23:00:00 16,8 14,1 15,0 15,9 16,2 21 11 31 17 S 1013,7 10 0 0,0
20.10.2017 22:00:00 15,9 13,6 14,8 16,0 16,2 17 9 26 14 S 1013,8 59 0 0,0
20.10.2017 21:00:00 15,6 13,1 13,4 16,0 16,2 17 9 26 14 S 1014,1 60 0 0,0
20.10.2017 20:00:00 14,7 12,2 13,4 16,0 16,3 14 7 22 12 S 1014,6 59 0 0,0
20.10.2017 19:00:00 15,5 11,5 14,4 16,0 16,3 14 8 33 18 S 1014,6 60 40 0,0
20.10.2017 18:00:00 17,3 10,9 16,6 15,9 16,3 17 9 31 17 SSW 1015,1 54 42 0,0
20.10.2017 17:00:00 17,2 10,6 17,4 15,8 16,2 19 10 34 18 SSW 1015,3 57 42 0,0
20.10.2017 16:00:00 17,9 10,0 17,9 15,7 16,3 18 10 39 21 SW 1015,5 10 31 0,0
20.10.2017 15:00:00 18,3 9,9 18,3 15,6 16,3 22 12 34 19 SSW 1015,8 10 47 0,0
20.10.2017 14:00:00 17,5 9,9 17,8 15,5 16,3 16 9 32 17 SW 1016,0 10 44 0,0
20.10.2017 13:00:00 16,6 9,0 17,1 15,5 16,2 16 9 26 14 SW 1016,4 20 37 0,0
20.10.2017 12:00:00 16,5 9,7 18,8 15,5 16,3 13 7 23 12 SSW 1016,2 10 60 0,0
20.10.2017 11:00:00 15,5 9,8 15,0 15,5 16,2 8 4 12 6 SSW 1016,0 41 60 0,0
20.10.2017 10:00:00 13,6 9,6 9,9 15,6 16,2 4 2 9 5 SW 1015,6 20 34 0,0
20.10.2017 09:00:00 10,9 9,0 8,8 15,7 16,2 5 3 9 5 SSW 1015,0 20 0 0,0
20.10.2017 08:00:00 10,8 8,9 9,0 15,9 16,2 5 3 8 5 SW 1014,3 48 0 0,0
20.10.2017 07:00:00 10,6 9,2 8,9 16,0 16,3 5 3 9 5 S 1013,8 20 0 0,0
20.10.2017 06:00:00 10,7 9,5 7,8 16,1 16,3 6 3 9 5 SW 1013,1 49 0 0,0
20.10.2017 05:00:00 11,2 9,5 9,1 16,2 16,3 5 3 12 6 SW 1012,7 10 0 0,0
20.10.2017 04:00:00 11,9 10,5 10,6 16,3 16,3 7 4 14 7 WSW 1012,4 20 0 0,0
20.10.2017 03:00:00 12,6 11,3 11,1 16,4 16,3 5 3 14 8 WSW 1011,7 10 0 0,0
20.10.2017 02:00:00 13,2 12,4 12,3 16,4 16,2 8 4 16 8 WSW 1010,9 20 0 0,0
20.10.2017 01:00:00 13,4 12,5 13,0 16,5 16,2 10 5 32 17 SW 1010,1 60 0 0,6
20.10.2017 00:00:00 14,5 13,7 14,1 16,5 16,3 22 12 54 29 WSW 1009,2 5 0 3,1
19.10.2017 23:00:00 14,6 13,6 13,8 16,6 16,3 32 18 61 33 SSW 1008,2 2,7 0 2,2
19.10.2017 22:00:00 15,6 13,1 14,1 16,6 16,2 32 18 61 33 SSW 1008,0 6 0 0,4
19.10.2017 21:00:00 16,8 13,3 15,8 16,6 16,2 30 16 45 24 S 1007,5 60 0 0,0
19.10.2017 20:00:00 16,4 12,9 15,2 16,6 16,3 27 14 44 24 S 1007,6 60 0 0,0
19.10.2017 19:00:00 16,7 12,4 16,2 16,6 16,2 25 14 44 24 S 1007,6 60 16 0,0
19.10.2017 18:00:00 17,1 12,6 17,2 16,6 16,3 23 12 36 20 S 1007,7 60 1 0,0
19.10.2017 17:00:00 17,5 12,2 17,9 16,5 16,2 20 11 38 20 SSW 1008,0 60 0 0,0
19.10.2017 16:00:00 18,2 12,0 19,3 16,4 16,2 16 9 38 21 SSW 1008,0 10 20 0,0
19.10.2017 15:00:00 19,0 12,3 20,5 16,3 16,3 18 10 39 21 SSW 1008,1 10 38 0,0
19.10.2017 14:00:00 19,7 10,1 22,4 16,2 16,2 24 13 38 20 SW 1008,3 10 60 0,0
19.10.2017 13:00:00 19,4 12,4 17,6 16,2 16,2 18 10 30 16 SW 1008,5 10 47 0,0
19.10.2017 12:00:00 17,2 14,7 16,9 16,2 16,2 13 7 30 16 SW 1008,6 10 1 0,0
19.10.2017 11:00:00 17,2 15,2 14,9 16,2 16,2 13 7 26 14 S 1008,5 10 34 0,0
19.10.2017 10:00:00 15,1 13,6 14,2 16,3 16,2 13 7 18 10 S 1008,3 10 8 0,0
19.10.2017 09:00:00 14,1 13,1 12,2 16,3 16,2 5 3 11 6 S 1008,0 10 6 0,0
19.10.2017 08:00:00 14,6 13,6 13,7 16,3 16,2 8 4 15 8 SSE 1007,7 10 0 0,0
19.10.2017 07:00:00 14,5 13,9 12,9 16,4 16,2 8 5 11 6 S 1007,4 13 0 0,0
19.10.2017 06:00:00 14,6 14,0 12,8 16,4 16,2 9 5 13 7 S 1007,4 9 0 0,0
19.10.2017 05:00:00 15,1 14,5 13,9 16,5 16,2 5 3 16 9 SSW 1007,4 8 0 0,0
19.10.2017 04:00:00 15,2 14,6 13,5 16,6 16,2 7 4 13 7 SSW 1007,3 6 0 0,0
19.10.2017 03:00:00 14,6 13,3 13,5 16,6 16,2 10 5 18 10 S 1007,4 18 0 0,0
19.10.2017 02:00:00 15,7 13,5 13,2 16,7 16,2 9 5 19 11 SSE 1006,9 10 0 0,0
19.10.2017 01:00:00 15,3 13,7 11,5 16,7 16,2 9 5 - - ESE 1007,2 10 0 0,0
19.10.2017 00:00:00 16,4 14,6 15,2 16,8 16,3 4 2 8 5 NE 1007,9 12 0 0,0
18.10.2017 23:00:00 16,6 14,8 16,0 16,7 16,2 4 2 11 6 NNE 1008,5 13 0 0,0
18.10.2017 22:00:00 16,9 14,9 16,2 16,8 16,2 8 4 18 10 N 1008,6 16 0 0,0
18.10.2017 21:00:00 17,1 15,1 16,5 16,8 16,2 9 5 13 7 WNW 1008,5 17 0 0,0
18.10.2017 20:00:00 17,2 15,0 16,0 16,7 16,2 7 4 9 5 NNW 1008,7 19 0 0,0
18.10.2017 19:00:00 18,1 15,2 16,7 16,7 16,3 5 3 7 4 WNW 1008,7 20 0 0,0
18.10.2017 18:00:00 19,3 15,0 19,0 16,6 16,2 4 2 11 6 SW 1008,9 10 0 0,0
18.10.2017 17:00:00 20,0 14,6 20,6 16,5 16,2 9 5 17 9 S 1008,9 10 1 0,0
18.10.2017 16:00:00 20,6 14,7 21,4 16,3 16,2 11 6 22 12 SSE 1009,1 10 8 0,0
18.10.2017 15:00:00 21,6 15,2 22,3 16,3 16,2 13 7 24 13 S 1009,7 10 28 0,0
18.10.2017 14:00:00 19,9 16,3 20,0 16,2 16,2 13 7 27 15 SSE 1010,3 10 4 0,0
18.10.2017 13:00:00 18,3 15,4 19,6 16,1 16,2 16 9 28 15 SSE 1011,0 10 17 0,0
18.10.2017 12:00:00 17,2 15,7 17,1 16,1 16,2 13 7 25 13 SE 1010,8 10 10 0,0
18.10.2017 11:00:00 16,6 15,1 14,5 16,1 16,2 15 8 29 16 SE 1011,0 13 10 0,0
18.10.2017 10:00:00 15,1 13,8 14,2 16,1 16,2 13 7 25 13 SE 1011,3 10 0 0,2
18.10.2017 09:00:00 15,1 13,5 14,3 16,1 16,2 14 8 24 13 SE 1011,1 13 0 0,0
18.10.2017 08:00:00 15,5 13,3 14,2 16,2 16,2 14 8 23 13 SE 1011,2 18 0 0,0
18.10.2017 07:00:00 15,0 13,4 13,4 16,2 16,3 8 4 15 8 ESE 1011,4 18 0 0,0
18.10.2017 06:00:00 15,3 13,5 14,2 16,2 16,2 9 5 21 12 SE 1011,5 10 0 0,0
18.10.2017 05:00:00 15,9 13,9 15,0 16,3 16,3 11 6 17 9 SE 1011,8 20 0 0,0
18.10.2017 04:00:00 16,3 14,7 15,3 16,3 16,3 10 6 19 10 SE 1012,3 14 0 0,0
18.10.2017 03:00:00 16,5 14,5 15,1 16,3 16,2 11 6 17 9 ESE 1012,8 17 0 0,0
18.10.2017 02:00:00 16,3 14,5 15,0 16,3 16,3 8 4 16 9 SSE 1013,2 15 0 0,2
18.10.2017 01:00:00 17,1 14,2 16,1 16,4 16,3 8 4 16 9 SE 1013,4 26 0 0,0
18.10.2017 00:00:00 17,2 13,9 14,2 16,4 16,2 9 5 14 8 S 1013,5 35 0 0,0
17.10.2017 23:00:00 17,0 13,1 13,1 16,5 16,3 9 5 15 8 SSE 1013,7 10 0 0,0
17.10.2017 22:00:00 16,9 12,6 13,7 16,5 16,3 8 4 16 9 S 1013,7 10 0 0,0
17.10.2017 21:00:00 17,9 12,3 14,8 16,5 16,3 9 5 16 8 SSE 1013,7 10 0 0,0
17.10.2017 20:00:00 18,4 12,6 15,0 16,4 16,2 9 5 19 10 SSE 1013,7 10 0 0,0
17.10.2017 19:00:00 20,0 13,9 17,8 16,4 16,3 9 5 22 12 S 1013,8 10 32 0,0
17.10.2017 18:00:00 22,4 14,0 21,7 16,2 16,3 13 7 31 17 S 1013,8 10 36 0,0
17.10.2017 17:00:00 24,1 12,1 26,0 16,1 16,3 24 13 34 19 S 1014,0 10 60 0,0
17.10.2017 16:00:00 24,4 13,9 27,8 15,9 16,3 18 10 30 16 SSE 1014,2 10 60 0,0
17.10.2017 15:00:00 23,8 14,5 25,9 15,7 16,3 18 10 30 16 SE 1015,0 10 60 0,0
17.10.2017 14:00:00 22,8 14,9 24,6 15,8 16,4 18 10 32 18 SE 1015,9 27 25 0,0
17.10.2017 13:00:00 20,9 14,8 20,0 15,6 16,3 18 10 31 17 SSE 1017,1 10 60 0,0
17.10.2017 12:00:00 18,0 14,3 17,9 15,6 16,3 16 9 29 16 SE 1018,0 10 - -
17.10.2017 11:00:00 - - - - - 18 10 - - SE - - - -
17.10.2017 10:00:00 - - - - - - - - - - - - - -

tt = Température de l'air
td = dewpoint
tt 5cm = Température de l'air 5cm
tt -20cm = Température de l'air -20cm
tt -100cm = Température de l'air -100cm
ff = Vitesse du vent
fx = gusts
dd = Direction du vent
ppp = reduced air pressure
vv = visibility
sd = Ensoleillement
rr = Quantités de précipitations

stations d'obs. à proximité